Temperature
17 17 18 18 18 18 18 19 18 18 17 16 16 15 14 14 13 13 13 12 12 12 12 11 11 11 11 11 10 9 9 8 8 8 8 8 8 8 7 7 7 7 7
16 17 17 18 18 18 18 18 17 17 16 16 15 15 14 13 13 13 12 12 11 11 11 11 11 11 10 10 9 9 8 7 6 6 5 5 6 6 6 6 6 5 5
16 16 17 17 17 17 17 17 17 16 15 15 14 14 13 13 12 12 12 11 11 11 11 11 10 10 10 9 8 8 7 6 5 5 4 3 2 2 3 4 4 3 3
16 16 17 17 17 17 17 16 16 15 15 14 14 14 13 13 12 12 11 11 11 11 10 10 10 9 9 8 7 6 6 5 4 4 3 2 1 -0 -0 2 2 2 3
16 16 17 17 17 16 16 16 15 14 14 13 13 13 13 13 12 11 11 11 10 10 10 9 9 9 8 7 6 5 5 4 4 3 2 2 1 -1 -2 -2 -0 1 2
16 16 17 17 16 15 15 15 14 13 13 12 13 13 13 12 12 11 11 10 10 9 9 9 8 8 7 6 5 5 4 3 3 2 2 1 -0 -1 -3 -4 -4 -4 -1
15 15 15 16 16 15 14 14 13 13 12 12 12 12 12 12 12 11 10 10 9 9 8 8 7 7 6 5 4 4 3 3 2 2 1 0 -1 -2 -3 -4 -5 -5 -4
15 15 15 15 15 15 14 13 12 12 12 12 12 11 11 11 11 10 10 9 9 8 8 7 6 6 5 4 4 3 3 2 2 1 1 -0 -1 -2 -3 -5 -6 -7 -6
14 14 14 14 14 14 13 13 12 11 11 11 11 11 10 10 10 9 9 8 8 7 7 6 6 5 4 3 3 2 2 2 1 1 0 -1 -2 -3 -4 -5 -6 -7 -8
12 12 12 12 12 13 12 11 11 11 11 10 10 10 10 10 9 9 8 8 7 7 6 5 5 4 3 3 2 2 1 1 1 0 -0 -1 -3 -4 -5 -6 -6 -7 -8
11 11 10 10 11 11 11 11 11 10 10 10 10 10 9 9 8 8 7 7 6 6 5 5 4 3 2 2 2 1 1 1 0 -0 -1 -2 -4 -5 -6 -6 -7 -7 -8
9 8 8 8 9 10 10 10 10 10 10 10 9 9 9 8 8 7 7 6 6 5 4 4 3 2 2 1 1 1 0 -0 -1 -2 -3 -4 -5 -6 -6 -7 -7 -8 -8
6 6 6 7 9 10 10 10 9 10 9 9 9 9 8 7 7 6 6 5 5 4 3 3 2 2 1 1 1 0 -0 -1 -2 -3 -4 -5 -6 -6 -7 -8 -8 -8 -9
5 5 6 7 9 9 9 9 9 9 9 9 8 8 7 7 6 6 5 5 4 3 3 2 2 1 1 0 -0 -0 -1 -2 -3 -4 -5 -6 -7 -7 -8 -8 -9 -9 -9
4 5 6 7 8 9 9 8 8 8 8 8 7 7 6 6 5 5 4 4 3 2 2 1 1 1 0 -0 -1 -2 -3 -3 -4 -5 -6 -7 -7 -8 -9 -9 -9 -9 -9
4 5 6 7 8 8 8 8 8 8 7 7 7 6 6 5 5 4 4 3 2 2 1 1 0 0 -0 -1 -2 -3 -4 -5 -6 -6 -7 -7 -8 -8 -9 -9 -9 -9 -9
5 5 6 8 8 8 8 8 8 7 7 6 6 5 5 4 4 3 3 2 1 1 0 0 -0 -1 -1 -2 -2 -3 -5 -6 -6 -7 -8 -8 -8 -9 -9 -9 -9 -9 -9
5 6 7 7 8 8 8 7 7 7 6 6 5 5 4 3 3 2 2 1 1 0 0 -0 -1 -1 -2 -2 -3 -5 -6 -7 -7 -8 -8 -9 -9 -9 -9 -9 -9 -9 -9
7 7 8 8 8 8 7 7 6 6 5 5 4 4 3 3 2 1 1 0 0 -0 -1 -1 -2 -2 -3 -3 -4 -6 -7 -7 -8 -8 -9 -9 -10 -10 -9 -9 -9 -10 -9
8 8 8 8 8 7 7 6 6 5 5 4 3 3 2 2 1 0 0 -0 -0 -1 -1 -2 -2 -3 -4 -4 -5 -7 -8 -8 -8 -9 -9 -10 -10 -10 -9 -9 -10 -10 -10
8 8 7 7 7 7 6 6 5 4 4 3 2 2 1 1 0 0 -0 -1 -1 -1 -2 -2 -3 -3 -4 -5 -6 -7 -9 -9 -9 -9 -10 -10 -10 -10 -10 -10 -10 -10 -10
7 7 7 6 6 6 6 5 4 3 3 2 2 1 1 0 -0 -0 -1 -1 -2 -2 -3 -3 -3 -4 -5 -6 -7 -9 -9 -9 -9 -10 -10 -10 -10 -10 -10 -10 -10 -11 -11
7 7 7 6 5 5 5 4 3 2 2 1 1 0 0 -0 -1 -1 -1 -2 -2 -3 -3 -4 -5 -5 -6 -7 -8 -9 -9 -10 -10 -10 -10 -10 -10 -10 -10 -9 -10 -10 -10
6 6 6 5 4 4 3 3 2 2 1 1 0 -0 -1 -1 -1 -2 -2 -2 -3 -4 -5 -6 -7 -7 -7 -8 -9 -10 -10 -10 -10 -10 -10 -10 -10 -10 -10 -10 -10 -10 -10
5 5 5 4 3 2 2 2 1 1 0 0 -0 -1 -1 -2 -2 -2 -3 -3 -4 -5 -7 -7 -8 -9 -9 -9 -10 -10 -10 -10 -10 -11 -10 -10 -10 -10 -10 -10 -10 -10 -10
5 4 4 3 2 1 1 1 0 -0 -0 -1 -1 -1 -2 -2 -3 -3 -3 -4 -5 -6 -7 -7 -8 -9 -9 -10 -10 -10 -10 -10 -11 -11 -10 -10 -10 -11 -11 -11 -10 -10 -10
Wind_Speed
12 8 7 6 6 5 6 8 10 11 13 11 10 9 8 8 7 7 11 13 14 14 12 8 6 6 7 7 6 4 6 6 6 5 6 5 3 3 0 1 1 2 7
10 8 7 7 7 6 7 8 11 11 10 9 7 6 7 7 7 7 10 12 13 14 12 8 7 6 7 8 8 6 3 5 6 4 4 5 6 5 4 4 3 5 8
15 11 9 9 8 8 9 9 10 10 10 11 12 12 8 6 6 7 7 8 13 14 13 11 8 6 7 6 7 6 5 4 4 4 4 3 4 5 5 5 5 5 6
14 12 11 10 10 9 8 9 10 11 12 13 16 18 11 8 6 7 8 8 11 13 14 12 10 7 6 7 6 6 4 3 3 3 2 1 3 3 6 5 4 5 8
15 14 14 13 10 9 9 10 11 11 11 10 14 15 12 10 11 10 11 9 8 10 12 12 9 6 5 6 6 5 4 3 2 1 2 2 2 3 4 7 6 7 6
14 13 11 11 9 9 10 11 12 11 9 10 11 15 18 18 15 12 10 8 6 6 8 10 9 7 5 5 5 4 4 2 1 0 1 2 2 2 4 6 12 13 8
11 12 14 15 15 14 13 12 14 12 10 11 11 14 17 17 16 13 10 9 6 5 6 6 5 5 5 5 4 3 3 1 1 2 2 2 3 3 4 7 12 13 8
10 13 16 17 17 17 16 15 14 13 12 12 12 12 13 11 10 10 9 8 6 6 6 6 6 6 5 4 3 2 2 1 3 4 4 3 4 4 4 5 10 14 7
11 13 15 16 17 17 16 16 16 14 13 13 14 13 11 12 12 10 9 8 7 6 6 6 5 5 4 3 2 2 3 3 3 5 5 4 5 5 5 5 6 8 14
11 13 14 14 14 14 14 14 15 15 14 14 13 12 11 12 12 11 10 8 7 7 7 6 5 4 3 3 2 3 3 4 4 4 5 6 5 6 6 6 7 8 13
14 15 13 13 13 14 14 15 15 15 14 13 13 14 12 12 11 10 9 8 7 7 6 5 4 3 3 3 3 4 4 5 6 6 6 7 8 6 6 6 7 9 10
11 13 14 14 15 15 15 15 14 15 14 13 14 14 12 12 11 10 8 8 8 6 6 4 4 3 3 3 3 5 6 6 7 7 7 8 8 8 7 8 9 10 10
12 13 13 14 14 14 14 14 14 14 13 14 15 13 12 11 10 9 8 8 7 6 5 4 3 3 4 4 4 5 6 7 7 7 7 8 8 9 9 10 10 10 12
13 13 12 12 13 13 14 14 13 13 14 14 14 13 11 10 9 8 8 7 7 6 4 3 3 3 4 5 6 6 6 6 6 6 7 8 9 11 11 11 10 10 12
13 13 13 12 13 14 13 13 13 12 13 14 13 11 10 9 9 8 8 7 6 5 3 3 3 4 4 5 7 6 5 5 6 7 8 9 13 17 15 14 12 12 13
13 13 13 14 14 14 15 14 13 12 13 13 12 11 10 9 8 8 7 6 5 4 3 3 3 4 4 10 14 11 5 5 6 8 9 10 12 17 22 26 25 23 18
13 14 14 13 13 14 15 15 13 12 12 12 11 10 10 9 8 7 7 5 4 3 3 3 4 5 8 13 15 16 9 6 7 9 10 11 13 18 13 20 25 21 23
13 13 13 13 12 12 13 13 13 12 12 12 11 9 9 9 7 7 6 4 2 2 2 3 5 6 8 14 16 17 8 7 8 9 10 11 12 14 18 17 15 12 13
11 12 12 14 14 14 15 15 13 12 12 11 10 9 9 8 7 6 4 3 2 2 3 4 5 6 8 14 16 17 6 7 9 9 10 12 11 22 27 18 15 15 14
13 14 14 15 14 13 14 15 13 12 11 10 9 8 8 8 7 5 3 2 1 2 4 5 5 6 7 13 17 18 6 7 8 7 8 16 20 25 27 16 12 15 16
15 15 15 14 13 14 15 15 13 11 10 11 10 9 8 7 6 4 3 2 2 3 4 6 6 7 8 12 17 19 9 8 9 9 8 9 24 27 27 22 12 18 20
15 15 15 13 11 12 15 15 12 10 11 11 10 9 7 6 5 5 3 2 3 4 5 5 7 6 7 11 15 20 19 18 11 11 9 12 26 26 25 19 20 25 20
14 13 16 15 10 9 13 16 10 11 12 11 9 8 7 6 4 4 3 2 3 3 5 5 6 7 6 8 18 19 21 22 13 11 20 24 25 22 16 19 23 18 11
13 14 16 15 12 10 12 13 12 11 12 10 8 6 6 5 4 3 2 2 3 4 5 6 6 7 7 7 8 8 10 15 14 12 15 21 20 17 17 16 14 11 11
11 12 14 15 14 13 13 11 10 11 11 9 7 6 5 4 3 3 2 3 4 5 7 5 5 7 7 11 20 15 11 11 12 14 7 8 10 10 10 11 10 10 11
13 14 15 15 13 13 12 9 8 9 10 7 5 4 3 2 2 3 4 6 7 11 13 13 13 11 15 21 21 21 21 22 21 14 9 10 10 11 12 13 13 12 12
Wind_Direction
253 247 226 196 176 170 156 147 143 144 143 141 136 128 117 109 96 93 99 105 107 105 100 97 84 76 75 64 50 53 40 23 3 3 339 336 355 354 112 19 336 1 14
253 231 202 184 183 177 163 151 151 152 150 144 128 118 117 106 96 95 93 99 103 101 98 95 91 82 82 65 51 49 52 25 26 33 6 346 337 342 342 340 346 5 10
242 231 205 197 187 183 172 160 155 147 137 130 121 116 107 104 102 100 93 90 97 96 98 95 91 81 81 76 64 56 66 34 15 41 58 15 310 309 311 318 337 353 353
231 221 199 193 190 183 163 150 146 142 142 142 143 143 143 136 128 125 113 98 93 94 94 92 88 82 78 75 67 65 67 70 31 5 31 230 238 288 309 302 308 323 317
223 212 197 191 176 159 151 144 138 140 145 146 147 138 127 121 124 120 111 100 87 87 89 88 85 79 76 76 69 65 63 77 87 20 327 317 294 246 269 294 305 306 287
220 205 182 161 151 146 143 143 141 140 138 136 138 137 134 135 134 128 119 107 95 84 82 84 81 79 75 72 69 66 62 67 81 143 243 240 270 286 277 287 306 307 300
209 184 167 165 161 158 154 150 146 140 135 132 130 136 137 138 137 134 128 121 108 93 84 84 81 75 73 73 67 56 35 22 314 278 256 237 236 241 263 292 306 305 298
197 183 177 172 167 163 157 153 148 141 134 130 125 124 125 124 124 122 122 116 111 108 102 93 85 77 69 63 52 33 336 298 282 274 265 255 253 247 257 278 305 313 301
193 182 175 170 166 163 159 153 146 138 133 129 125 120 117 119 119 114 108 108 108 108 100 92 83 69 56 41 23 334 306 298 276 272 269 258 256 253 256 261 271 291 306
184 174 171 166 160 153 143 139 140 136 131 128 128 123 116 115 117 114 110 107 104 101 99 88 78 60 38 12 347 311 302 305 293 278 272 268 261 259 258 257 260 262 281
178 170 161 149 141 137 138 136 134 131 129 125 121 119 116 114 111 110 110 109 104 101 95 89 75 51 21 352 336 316 309 309 301 297 287 278 273 269 265 261 263 266 271
157 150 144 140 141 140 138 135 135 131 128 124 120 118 117 114 111 110 110 108 104 98 95 88 70 35 2 340 328 314 313 303 299 297 295 289 292 279 274 271 270 273 271
135 135 139 143 143 140 136 134 132 129 125 123 120 119 117 116 115 114 112 108 105 98 88 80 57 14 343 326 310 298 297 295 294 296 296 292 289 285 281 278 279 279 284
143 143 143 140 138 135 133 131 127 127 126 123 122 122 121 120 119 116 112 109 107 100 88 71 38 356 326 307 297 295 294 295 298 296 290 287 284 283 284 287 281 289 294
154 152 147 141 136 132 129 129 127 126 126 123 122 122 120 117 115 113 110 105 100 95 82 54 15 343 316 304 307 299 293 294 295 293 287 287 298 303 304 305 305 303 299
163 154 147 144 143 140 137 133 130 128 126 124 124 125 121 117 115 113 109 103 94 81 56 26 351 333 324 321 325 325 298 287 292 297 294 292 296 301 311 311 307 304 303
165 159 155 151 147 144 141 137 133 128 123 124 126 126 122 117 115 113 105 98 91 65 25 351 335 319 312 325 326 323 322 295 290 291 295 303 306 311 298 298 303 304 305
160 153 146 139 134 130 129 126 127 126 124 125 125 124 120 116 112 105 99 92 83 40 356 328 322 316 318 330 326 322 324 292 284 283 286 291 294 299 305 305 309 302 299
145 141 137 135 133 134 134 129 125 124 124 126 125 123 120 117 112 104 97 88 57 9 330 314 320 318 316 327 324 324 301 289 288 287 290 301 300 305 312 317 311 308 306
127 127 127 128 130 134 134 129 129 128 128 127 121 115 114 115 112 108 99 77 43 336 323 319 316 310 304 317 325 325 300 296 298 293 288 307 313 313 319 319 314 314 311
117 121 123 127 132 135 131 127 127 126 123 116 110 105 106 110 110 102 89 63 17 346 335 320 315 306 306 320 325 324 322 310 311 313 308 305 315 319 322 323 317 309 315
111 116 116 115 118 126 126 121 118 116 113 109 106 103 100 100 101 93 76 50 15 349 332 321 315 299 298 315 320 324 323 323 317 314 310 311 319 324 325 324 316 319 326
106 109 114 111 101 105 120 119 117 116 111 106 105 104 97 84 82 76 47 17 0 338 317 308 302 303 299 307 320 322 323 324 322 311 315 320 324 327 324 318 321 327 322
106 113 112 109 99 91 99 112 115 112 110 109 106 101 95 81 60 43 16 355 329 314 303 299 301 304 305 303 300 298 312 321 319 312 316 324 324 324 320 320 320 317 312
105 107 109 107 103 100 99 103 109 111 107 105 101 93 83 75 40 10 331 317 279 279 306 297 297 312 310 313 323 328 322 323 319 325 326 324 323 324 322 319 317 317 317
104 103 103 105 104 102 98 94 100 108 110 105 95 86 75 52 25 351 328 321 320 323 325 325 324 319 318 322 327 328 329 329 330 333 326 321 320 319 319 319 318 317 315
Height
1448 1451 1452 1453 1454 1456 1458 1460 1462 1464 1467 1470 1474 1479 1484 1489 1492 1495 1498 1500 1502 1503 1504 1505 1505 1505 1503 1502 1499 1497 1495 1492 1489 1487 1484 1483 1482 1481 1480 1480 1479 1477 1475
1441 1444 1446 1448 1450 1451 1453 1455 1457 1460 1462 1466 1470 1475 1480 1485 1489 1492 1495 1497 1499 1501 1502 1503 1503 1502 1500 1498 1496 1494 1492 1490 1487 1485 1481 1480 1479 1478 1478 1477 1475 1472 1469
1434 1437 1440 1442 1445 1447 1449 1451 1453 1456 1458 1462 1467 1472 1478 1482 1486 1489 1492 1495 1497 1499 1500 1501 1500 1499 1498 1496 1494 1492 1490 1489 1487 1485 1484 1481 1477 1473 1468 1469 1467 1464 1461
1426 1429 1432 1436 1439 1442 1445 1447 1450 1452 1455 1459 1464 1469 1474 1478 1483 1487 1490 1493 1495 1497 1498 1498 1498 1497 1495 1493 1492 1490 1488 1487 1486 1484 1483 1482 1478 1473 1464 1460 1459 1457 1453
1416 1419 1424 1429 1433 1437 1440 1443 1446 1449 1453 1458 1463 1468 1472 1476 1480 1484 1488 1491 1493 1495 1495 1496 1495 1494 1493 1491 1490 1488 1487 1485 1483 1481 1479 1477 1475 1471 1465 1455 1449 1446 1445
1407 1410 1415 1421 1426 1431 1435 1439 1442 1446 1450 1456 1461 1466 1470 1474 1478 1482 1486 1489 1491 1492 1493 1493 1493 1492 1491 1489 1488 1487 1485 1483 1481 1478 1476 1473 1470 1467 1462 1453 1444 1438 1434
1399 1402 1406 1412 1418 1424 1430 1435 1439 1443 1448 1454 1459 1464 1469 1473 1477 1481 1485 1487 1489 1490 1491 1491 1490 1489 1488 1487 1486 1485 1483 1481 1478 1476 1473 1470 1467 1463 1459 1452 1442 1432 1425
1393 1395 1399 1405 1411 1418 1424 1430 1435 1441 1446 1452 1458 1463 1468 1472 1476 1480 1483 1486 1487 1488 1489 1489 1488 1487 1486 1485 1483 1482 1480 1477 1475 1472 1469 1466 1463 1459 1455 1450 1442 1429 1418
1387 1390 1394 1399 1406 1413 1419 1426 1432 1438 1444 1450 1456 1461 1467 1471 1475 1479 1481 1484 1485 1486 1487 1486 1486 1485 1483 1482 1480 1479 1476 1474 1471 1467 1464 1461 1457 1454 1450 1447 1442 1435 1419
1381 1384 1389 1394 1401 1409 1416 1424 1431 1437 1443 1449 1455 1460 1466 1470 1474 1477 1480 1482 1483 1484 1484 1484 1483 1482 1481 1479 1477 1475 1472 1470 1466 1463 1459 1455 1452 1448 1445 1441 1437 1433 1424
1374 1379 1384 1391 1398 1406 1414 1422 1429 1435 1441 1447 1454 1459 1464 1469 1473 1476 1478 1480 1481 1482 1482 1481 1480 1479 1478 1475 1473 1471 1468 1465 1461 1457 1453 1449 1446 1442 1438 1434 1430 1425 1419
1371 1376 1382 1388 1396 1404 1412 1420 1428 1434 1440 1447 1453 1458 1463 1468 1471 1474 1476 1478 1479 1479 1479 1478 1477 1476 1474 1472 1469 1466 1463 1459 1455 1451 1447 1443 1439 1435 1431 1427 1422 1417 1412
1371 1376 1382 1388 1396 1404 1412 1420 1427 1434 1440 1447 1452 1457 1462 1466 1470 1473 1474 1476 1476 1476 1476 1475 1474 1473 1471 1468 1465 1461 1458 1454 1449 1445 1441 1437 1432 1427 1423 1418 1413 1409 1404
1373 1377 1383 1389 1396 1404 1412 1419 1427 1434 1440 1446 1452 1457 1461 1465 1468 1471 1472 1473 1474 1474 1473 1472 1471 1469 1466 1463 1460 1456 1452 1448 1444 1439 1435 1431 1426 1421 1416 1411 1407 1402 1396
1375 1378 1383 1389 1396 1404 1413 1420 1427 1434 1440 1446 1452 1456 1460 1464 1467 1469 1470 1471 1471 1471 1470 1469 1467 1465 1462 1458 1454 1450 1446 1442 1437 1433 1429 1425 1420 1416 1411 1407 1401 1395 1388
1375 1380 1385 1391 1398 1405 1413 1420 1427 1434 1441 1446 1451 1456 1459 1462 1465 1467 1468 1468 1468 1468 1467 1465 1463 1460 1457 1453 1449 1445 1440 1436 1432 1427 1423 1418 1414 1409 1405 1400 1394 1390 1384
1376 1380 1386 1392 1399 1407 1414 1421 1428 1435 1441 1446 1451 1455 1458 1461 1463 1465 1466 1466 1466 1465 1464 1461 1459 1456 1452 1448 1444 1440 1436 1431 1426 1422 1417 1412 1407 1403 1396 1390 1386 1382 1377
1377 1382 1388 1395 1402 1409 1416 1423 1430 1436 1441 1446 1450 1454 1457 1459 1461 1463 1463 1464 1463 1462 1460 1457 1454 1451 1447 1443 1439 1434 1430 1425 1421 1417 1412 1406 1400 1395 1390 1384 1378 1372 1367
1377 1383 1389 1396 1403 1410 1418 1424 1431 1437 1442 1446 1450 1453 1456 1458 1460 1461 1462 1461 1461 1459 1456 1453 1449 1446 1442 1438 1433 1429 1424 1419 1415 1411 1406 1401 1395 1389 1384 1378 1371 1363 1357
1379 1385 1391 1398 1405 1412 1419 1425 1431 1437 1442 1446 1449 1453 1455 1457 1459 1459 1460 1459 1457 1455 1452 1449 1445 1441 1437 1432 1428 1424 1418 1413 1409 1404 1400 1395 1389 1384 1378 1372 1364 1356 1350
1382 1387 1393 1400 1407 1414 1420 1426 1432 1438 1442 1446 1449 1452 1455 1456 1457 1458 1457 1456 1454 1451 1448 1445 1442 1438 1433 1428 1423 1419 1415 1409 1404 1399 1393 1388 1383 1378 1372 1366 1359 1352 1347
1385 1390 1396 1402 1409 1416 1422 1428 1434 1439 1443 1446 1449 1452 1454 1455 1456 1456 1454 1452 1450 1447 1444 1440 1437 1433 1428 1423 1418 1414 1411 1406 1400 1393 1387 1382 1377 1371 1365 1359 1353 1348 1342
1389 1394 1400 1406 1413 1420 1426 1430 1435 1440 1443 1447 1450 1452 1453 1454 1454 1453 1451 1449 1446 1443 1439 1435 1430 1426 1423 1418 1414 1409 1405 1400 1395 1388 1383 1377 1371 1365 1359 1353 1348 1343 1336
1394 1400 1405 1410 1416 1423 1429 1433 1437 1441 1445 1448 1450 1451 1452 1452 1452 1450 1448 1446 1443 1439 1434 1430 1425 1421 1417 1413 1408 1404 1399 1394 1388 1382 1376 1371 1366 1360 1355 1349 1344 1338 1333
1400 1405 1410 1414 1420 1426 1432 1436 1440 1443 1446 1448 1449 1450 1451 1450 1449 1448 1446 1442 1439 1435 1431 1426 1422 1417 1412 1408 1405 1401 1395 1390 1384 1378 1371 1366 1360 1354 1349 1344 1339 1334 1329
1406 1410 1415 1419 1425 1430 1435 1439 1442 1445 1447 1448 1449 1449 1449 1448 1447 1445 1443 1439 1436 1432 1428 1424 1420 1414 1410 1405 1400 1396 1391 1385 1380 1374 1368 1362 1357 1352 1346 1341 1335 1330 1325